User: anonymous   Login
Location: Aalsum
(53.3404°N, 6.0062°E)
Time: 11:07:50
(UTC+00:00)
Language:

Cosmos 2279 Rocket - Orbit

View from above orbital plane
View from above orbital plane
View from above satellite
View from above satellite

Ground track
Ground track

The orbit data is extracted from the following two-line orbital elements,

1 23093U 94024B   23150.92628674  .00000025  00000-0  10109-4 0  9993
2 23093  82.9443 297.3556 0010856  37.9335 322.2586 13.77976503930521
Epoch (UTC): 30 May 2023 22:13:51
Eccentricity: 0.0010856
inclination: 82.9443°
perigee height: 963 km
apogee height: 979 km
right ascension of ascending node: 297.3556°
argument of perigee: 37.9335°
revolutions per day: 13.77976503
mean anomaly at epoch: 322.2586°
orbit number at epoch: 93052

The dashed part of the orbit path shows where the satellite is in the earth's shadow,  

DLR